Location: Corte Bragagnani
(45.3000°N, 11.1000°E)
Time: 08:04:04
(UTC+00:00)

CZ-2C R/B - Pass Details

Date: 09 April 2020
Orbit: 785 x 870 km, 98.3° (Epoch: 02 June)

Event Time Altitude Azimuth Distance (km) Brightness Sun altitude
Rises 19:16:55 0° 17° (NNE) 3,288 5.9 -14.5°
Reaches altitude 10° 19:19:18 10° 22° (NNE) 2,355 5.1 -14.8°
Maximum altitude 19:24:24 56° 100° (E) 936 2.6 -15.6°
Drops below altitude 10° 19:29:31 10° 179° (S) 2,363 4.7 -16.4°
Sets 19:31:53 0° 183° (S) 3,299 5.5 -16.7°
Enters shadow 19:31:57 - 183° (S) 3,319 5.5 -16.8°
